小惑星A/2019 T2

A/2019 T2

English version
Home page
Updated on January 20, 2020

---------------------------------------------------------------------

・ プロフィール

発見日 2019年10月9日
発見光度 20.6等
発見者 Mt. Lemmon Survey

・ 軌道要素

Epoch 2021 Apr. 16.0 TT = JDT 2459320.5
T 2021 Apr. 22.27541 TT                                 Williams
q   2.6458154            (2000.0)            P               Q
z  +0.0005343      Peri.  239.39032     +0.33385493     -0.86097784
 +/-0.0000131      Node   155.64395     -0.13761006     +0.35822165
e   0.9985863      Incl.  111.48763     -0.93252579     -0.36110165
H   12.5
From 56 observations 2019 Aug. 26-Dec. 29, mean residual 0".3.

・ 光度変化

        H = 12.5  G = 0.15

---------------------------------------------------------------------

軌道要素はM.P.E.C. 2020-A105に掲載されたものです。
光度グラフはComet for Windowsで作成したものです。

---------------------------------------------------------------------

Copyright(C) Seiichi Yoshida (comet@aerith.net). All rights reserved.